Regional Weather Roundup
Issued by NWS Upton, NY

Current Version | Previous Version | Graphics & Text | Print | Product List | Glossary Off
Versions: 1 2 3 4 5 6 7 8 9 10 11 12 13 14 15 16 17 18 19 20 21 22 23 24 25 26 27 28 29 30 31 32 33 34 35 36 37 38 39 40 41 42 43 44 45 46 47 48 49 50

700
ASUS41 KOKX 262105
RWROKX

Regional Weather Roundup
National Weather Service New York NY
500 PM EDT THU APR 26 2018

Note: "FAIR" indicates few or no clouds below 12,000 feet with no
significant weather and/or obstructions to visibility.

NYZ071-072-176-178-NJZ106-104-262200-
New York City Metro Area

CITY           SKY/WX    TMP DP  RH WIND       PRES   REMARKS
Central Park   FAIR      69  41  36 MISG      29.78R
Bronx Bot Gard   N/A     66  39  37 W18       29.77F
Bronx Lehman C   N/A     68  39  34 W9          N/A
LaGuardia Arpt FAIR      69  40  34 W16       29.75R
Queens College   N/A     68  41  37 W15         N/A
Kennedy Intl   PTSUNNY   68  42  38 W16       29.77R
Breezy Point     N/A     59 N/A N/A W10G16      N/A
Brooklyn Coll    N/A     66  41  39 W13         N/A
Staten Island    N/A     66  41  39 W12         N/A
Newark/Liberty FAIR      69  43  38 SW13G20   29.76R
Teterboro      PTSUNNY   68  41  37 VRB5      29.74R
$$

NYZ177-179-078>081-262200-
Long Island New York

CITY           SKY/WX    TMP DP  RH WIND       PRES   REMARKS
Jones Beach      N/A     59 N/A N/A W13G18      N/A
Wantagh          N/A     64  43  45 SW14        N/A
Hempstead        N/A     68  43  40 NW3       29.79S
Matinecock Pt    N/A     61 N/A N/A W14         N/A
Farmingdale    FAIR      67  40  37 W17       29.76R
MacArthur/ISP  FAIR      68  40  35 NW15      29.75R
Stony Brook      N/A     64  41  42 NW7         N/A
Shirley        FAIR      68  43  40 NW13G21   29.76R
Mt Sinai Harb    N/A     66 N/A N/A W6G13       N/A
Westhampton    FAIR      67  37  33 W23G31    29.76R
East Hampton   FAIR      64  40  40 W14G24    29.74R
Southold         N/A     64  43  45 W10         N/A
Montauk          N/A     65  42  43 W10G21    29.74R
$$

NYZ052-065-067-262200-
Hudson Valley

CITY           SKY/WX    TMP DP  RH WIND       PRES   REMARKS
White Plains   FAIR      66  38  35 NW13G18   29.76R
Larchmont Harb   N/A     64 N/A N/A W12         N/A
Croton On Huds   N/A     63 N/A N/A SW12        N/A
Somers           N/A     64  39  39 NW8         N/A
Brewster         N/A     63  37  39 NW13        N/A
Newburgh       MOSUNNY   64  43  45 W9G23     29.77R
Montgomery     PTSUNNY   64  41  42 W14G21    29.76R
Otisville        N/A     61  39  44 NW7         N/A
Warwick          N/A     63  41  45 NW13        N/A
Suffern          N/A     64  39  39 NW10        N/A
Poughkeepsie   PTSUNNY   64  39  39 W13G18    29.75R
Albany         PTSUNNY   52  40  63 NW13      29.80R
$$

NJZ001-105-106-008-010-013-015-019>022-104-262200-
New Jersey

CITY           SKY/WX    TMP DP  RH WIND       PRES   REMARKS
Newark/Liberty FAIR      69  43  38 SW13G20   29.76R
Teterboro      PTSUNNY   68  41  37 VRB5      29.74R
Caldwell       FAIR      69  39  33 W13       29.76R
Somerville     FAIR      67  43  41 W8        29.76S
Linden         FAIR      67  40  37 W12G17    29.78S
Perth Amboy      N/A     64 N/A N/A W16         N/A
Sussex         FAIR      67  41  38 W9        29.78R
Andover          N/A     68  40  35 VRB5      29.77R
Trenton        FAIR      67  43  41 W13       29.79S
Millville      FAIR      68  43  40 W10G17    29.82R
Atlantic City  FAIR      70  45  40 W9        29.81R
Wrightstown    FAIR      67  42  40 W10G20    29.78R
Toms River     FAIR      68  42  38 W13G20    29.81R
Belmar         FAIR      66  42  41 W10       29.80R
$$

PAZ047>061-062-071-262200-
Eastern Pennsylvania

CITY           SKY/WX    TMP DP  RH WIND       PRES   REMARKS
Philadelphia   FAIR      66  41  40 VRB7G18   29.82R
Allentown      FAIR      66  41  40 W12       29.80R
Scranton       FAIR      64  42  44 N9        29.79R
$$

CTZ002-004>006-009-010-012-RIZ004-006-007-MAZ004-011-015-262200-
Southern New England

 In CT

CITY           SKY/WX    TMP DP  RH WIND       PRES   REMARKS
Bradley Intl   FAIR      66  39  37 NW18G26   29.73R
Hartford       FAIR      65  41  41 NW12G20   29.72R
Danbury        FAIR      63  40  42 NW10G24   29.77R
Wtrbury/Oxford FAIR      63  42  46 NW8G18    29.76R
Norwalk Harbor   N/A     63 N/A N/A W12         N/A
Bridgeport     FAIR      68  40  35 W16G22    29.74R
Meriden        PTSUNNY   64  41  42 NW13      29.73R
New Haven      FAIR      66  40  38 NW12G18   29.74R
Chester        FAIR      68  39  34 W10G20    29.73R
Groton         FAIR      60  43  53 SW15G24   29.71R
Willimantic    FAIR      65  41  41 W15G24    29.71R

 In RI

CITY           SKY/WX    TMP DP  RH WIND       PRES   REMARKS
Providence     FAIR      68  43  40 W16G25    29.68R
Block Island   FAIR      59  43  55 SW16G26   29.73R
Westerly       FAIR      60  44  55 SW15G26   29.72R

In MA

CITY           SKY/WX    TMP DP  RH WIND       PRES   REMARKS
Boston         FAIR      66  41  40 W17G29    29.65
Worcester      FAIR      58  40  51 W18G31    29.70R
Westfield      PTSUNNY   62  40  44 NW16      29.74R
Provincetown   FAIR      59  51  75 SW16      29.65R
Nantucket      FAIR      52  46  80 SW17      29.72R
$$

ANZ330-335-338-340-345-350-353-355-262200-
Coastal Marine Observations


STATION/POSITION TIME  SKY/WX   TEMP    WIND        PRES    VSBY  WAVE
                                AIR SEA DIR/SP/G                  HT/PER
                 (UTC)          (F)     (DEG/KT/KT) (MB)    (MI)  (FT/S)
NY Harb Entrance 2050            56 48  300/ 10/ 14 1008.3          6/11
20 S Fire Island 2050            49 46  210/  6/  8 1008.7          7/11
23 SSW Montauk P 2050            49 45  230/ 14/ 17 1007.8          9/10
15 E Barnegat Li 2030               49                N/A           6/10
Hudson Canyon    2050            49 46  220/ 10/ 12 1009.6          7/10
Kings Point      2048            62 51  310/  7/ 10 1008.7
Execution Rocks  NOT AVBL
Western LI Sound NOT AVBL
Central LI Sound 2030            52     230/ 12/ 14   N/A           2
Robbins Reef     2048            64     260/ 15/ 18 1008.5
$$


>>>>>>>>>>>>>>>>>>>>>>>>>>>> KEY <<<<<<<<<<<<<<<<<<<<<<<<<<<
>                                                          <
>     SKY/WX - Sky Condition/Present Weather               <
>     TMP    - Temperature in Fahrenheit                   <
>     DP     - Dew Point in Fahrenheit                     <
>     RH     - Relative Humidity in Percent                <
>     WIND   - Direction (from) and Speed in MPH           <
>     PRES   - Mean Sea Level Pressure (inches of Hg)      <
>     WCI    - Wind Chill Index                            <
>     VSB    - Visibility in Miles                         <
>     HX     - Heat Index                                  <
>     TC     - Temperature in Celsius                      <
>     VRB    - Varibale Wind Direction                     <
>                                                          <
>>>>>>>>>>>>>>>>>>>>>>>>>>>> KEY <<<<<<<<<<<<<<<<<<<<<<<<<<<




USA.gov is the U.S. government's official web portal to all federal, state and local government web resources and services.